This is the latest recevied weather packets stored in our database for station/object VE2JOS. If no packets are shown the sender has not sent any weather packets the latest 10 day(s).
| Time | Temp. | Humidity | Pressure | Rain* | Wind** | Luminosity | Snow |
|---|---|---|---|---|---|---|---|
| 1778114123 | 8.33° C | 85% | - | 0 mm | - | - | - |
| 1778113523 | 8.33° C | 85% | - | 0 mm | - | - | - |
| 1778110543 | 8.89° C | 85% | - | 0 mm | - | - | - |
| 1778109323 | 8.89° C | 84% | - | 0 mm | - | - | - |
| 1778108123 | 8.89° C | 81% | - | 0 mm | - | - | - |
| 1778106323 | 9.44° C | 79% | - | 0 mm | - | - | - |
| 1778105723 | 9.44° C | 78% | - | 0 mm | - | - | - |
| 1778104523 | 9.44° C | 80% | - | 0 mm | - | - | - |
| 1778100923 | 9.44° C | 79% | - | 0 mm | - | - | - |
| 1778097323 | 9.44° C | 80% | - | 0 mm | - | - | - |
| 1778093723 | 9.44° C | 84% | - | 0 mm | - | - | - |
| 1778092523 | 9.44° C | 83% | - | 0 mm | - | - | - |
| 1778088323 | 7.78° C | 88% | - | 0 mm | - | - | - |
| 1778085323 | 7.78° C | 94% | - | 1.02 mm | - | - | - |
| 1778084143 | 6.67° C | 93% | - | 0.76 mm | - | - | - |
| 1778082923 | 7.22° C | 94% | - | 0.51 mm | - | - | - |
| 1778082323 | 7.22° C | 92% | - | 0.51 mm | - | - | - |
| 1778081123 | 7.78° C | 92% | - | 1.02 mm | - | - | - |
| 1778076923 | 7.22° C | 93% | - | 1.52 mm | - | - | - |
| 1778075722 | 7.78° C | 94% | - | 1.27 mm | - | - | - |
| 1778073923 | 7.78° C | 93% | - | 1.02 mm | - | - | - |
| 1778071523 | 7.78° C | 91% | - | 0.51 mm | - | - | - |
| 1778070923 | 7.78° C | 90% | - | 0.76 mm | - | - | - |
| 1778069722 | 7.78° C | 90% | - | 0.76 mm | - | - | - |
| 1778068542 | 7.78° C | 89% | - | 1.02 mm | - | - | - |
* Rain latest hour (hover to see other rain measurements)
** Current wind speed in m/s (hover to see current wind gust speed)